FW2439 Weather Reports


time (UTC)temp
F
wind
direction
speed
knots
gust
knots
rain 1hr
in
rain 24hr
in
rain mn
in
humidity
%
barometer
mb
20260906150027 91 236 0.0 0.9 0.00 0.00 0.00 67 1012.8
20260906144521 89 217 0.0 0.9 0.00 0.00 0.00 72 1012.8
20260906143021 86 212 0.0 5.2 0.00 0.00 0.00 77 1012.9
20260906141512 83 218 0.0 2.6 0.00 0.00 0.00 80 1012.9
20260906140009 81 224 0.0 2.6 0.00 0.00 0.00 83 1012.8
20260906134507 80 227 0.9 5.2 0.00 0.00 0.00 85 1013.0
20260906133109 79 213 0.0 3.5 0.00 0.00 0.00 85 1013.1
20260906131557 78 214 0.9 4.3 0.00 0.00 0.00 86 1013.2
20260906130055 77 223 0.0 2.6 0.00 0.00 0.00 87 1013.1
20260906124552 76 221 0.0 0.9 0.00 0.00 0.00 89 1012.9
20260906123057 76 216 0.0 0.0 0.00 0.00 0.00 90 1012.8
20260906121552 75 216 0.0 0.0 0.00 0.00 0.00 90 1012.8
20260906120052 76 216 0.0 0.9 0.00 0.00 0.00 90 1012.9
20260906114550 76 216 0.0 0.9 0.00 0.00 0.00 90 1013.1
20260906113049 75 264 0.0 3.5 0.00 0.00 0.00 90 1013.0
20260906111550 75 231 0.0 0.0 0.00 0.00 0.00 90 1013.0
20260906110053 75 235 0.0 1.7 0.00 0.00 0.00 90 1012.9
20260906104545 75 203 0.0 1.7 0.00 0.00 0.00 92 1012.7
20260906103100 75 274 0.0 0.9 0.00 0.00 0.00 93 1013.0
20260906101544 76 245 0.0 0.9 0.00 0.00 0.00 95 1012.9
20260906100042 75 245 0.0 0.0 0.00 0.00 0.00 95 1012.5
20260906094541 75 245 0.0 0.9 0.00 0.00 0.00 96 1012.6
20260906093041 75 210 0.0 0.9 0.00 0.00 0.00 97 1012.0
20260906091540 74 253 0.0 0.0 0.00 0.00 0.00 97 1011.7
20260906090056 74 253 0.0 1.7 0.00 0.00 0.00 97 1011.7
20260906084539 74 252 0.0 0.0 0.00 0.00 0.00 97 1011.5
20260906083039 74 252 0.0 0.0 0.00 0.00 0.00 97 1011.4
20260906081537 74 252 0.0 0.0 0.00 0.00 0.00 97 1011.3
20260906080037 74 252 0.0 0.0 0.00 0.00 0.00 97 1011.5
20260906074536 74 252 0.0 0.0 0.00 0.00 0.00 96 1011.3
20260906073045 74 252 0.0 0.0 0.00 0.00 0.00 96 1011.5
20260906071534 74 252 0.0 0.0 0.00 0.00 0.00 96 1011.3
20260906070037 74 252 0.0 0.0 0.00 0.00 0.00 96 1011.3
20260906064532 75 252 0.0 0.0 0.00 0.00 0.00 96 1011.4
20260906063042 75 252 0.0 0.0 0.00 0.00 0.00 95 1011.6
20260906061527 75 252 0.0 0.0 0.00 0.00 0.00 95 1011.8
20260906060024 75 252 0.0 0.0 0.00 0.00 0.00 95 1011.9
20260906054522 75 252 0.0 0.0 0.00 0.00 0.00 95 1011.9
20260906053023 76 252 0.0 0.0 0.00 0.00 0.00 95 1011.9
20260906051536 76 252 0.0 0.0 0.00 0.00 0.00 95 1011.8
20260906050016 76 252 0.0 0.0 0.00 0.00 0.00 94 1011.9
20260906044515 76 252 0.0 0.0 0.00 0.00 0.00 94 1011.9
20260906043017 76 252 0.0 0.0 0.00 0.00 0.00 94 1011.8
20260906041515 77 252 0.0 0.0 0.00 0.00 0.00 94 1011.8
20260906040028 77 252 0.0 0.0 0.00 0.00 0.00 93 1011.8
20260906034513 77 252 0.0 0.0 0.00 0.00 0.00 93 1011.6
20260906033014 78 252 0.0 0.0 0.00 0.00 0.00 92 1011.8
20260906031515 78 252 0.0 0.0 0.00 0.00 0.00 91 1011.6
20260906030013 79 252 0.0 0.0 0.00 0.00 0.00 91 1011.5
20260906024511 79 252 0.0 0.0 0.00 0.00 0.00 90 1011.5
20260906023011 80 252 0.0 0.0 0.00 0.00 0.00 89 1011.4
20260906021511 80 252 0.0 0.0 0.00 0.00 0.00 88 1011.3
20260906020017 81 252 0.0 0.0 0.00 0.00 0.00 87 1011.2
20260906014515 82 252 0.0 0.0 0.00 0.00 0.00 86 1011.2
20260906013013 82 252 0.0 0.0 0.00 0.00 0.00 84 1011.3
20260906011509 83 252 0.0 0.0 0.00 0.00 0.00 81 1011.0
20260906010008 84 252 0.0 0.0 0.00 0.00 0.00 80 1010.7
20260906004507 85 252 0.0 0.0 0.00 0.00 0.00 77 1010.7
20260906003008 87 252 0.0 0.0 0.00 0.00 0.00 73 1010.5
20260906001506 88 252 0.0 0.0 0.00 0.00 0.00 70 1010.5
20260906000006 90 252 0.0 0.0 0.00 0.00 0.00 68 1010.7
20260905234507 92 252 0.0 0.0 0.00 0.00 0.00 64 1010.6
20260905233007 93 251 0.0 0.0 0.00 0.00 0.00 61 1010.8
20260905231506 95 251 0.0 0.0 0.00 0.00 0.00 60 1010.7
20260905230004 96 251 0.0 0.0 0.00 0.00 0.00 56 1010.8
20260905224501 97 251 0.0 0.0 0.00 0.00 0.00 53 1010.8
20260905223001 98 252 0.0 0.9 0.00 0.00 0.00 50 1010.8
20260905221559 99 259 0.0 0.9 0.00 0.00 0.00 53 1011.0
20260905220110 100 257 0.0 1.7 0.00 0.00 0.00 50 1011.1
20260905214601 99 279 0.0 3.5 0.00 0.00 0.00 51 1011.2
20260905213058 99 321 0.9 2.6 0.00 0.00 0.00 52 1011.1
20260905211555 100 202 0.9 3.5 0.00 0.00 0.00 51 1011.3
20260905210104 99 264 0.0 3.5 0.00 0.00 0.00 50 1011.1
20260905204555 100 224 0.0 1.7 0.00 0.00 0.00 51 1011.2
20260905203104 99 285 0.0 4.3 0.00 0.00 0.00 54 1011.6
20260905201545 99 43 1.7 4.3 0.00 0.00 0.00 52 1011.7
20260905200043 98 24 0.9 4.3 0.00 0.00 0.00 56 1011.9
20260905194539 98 212 1.7 3.5 0.00 0.00 0.00 54 1012.2
20260905193038 99 323 0.9 5.2 0.00 0.00 0.00 52 1012.5
20260905191540 98 333 0.0 2.6 0.00 0.00 0.00 51 1012.5
20260905190033 97 300 0.0 5.2 0.00 0.00 0.00 56 1012.9
20260905184531 98 22 0.0 3.5 0.00 0.00 0.00 52 1013.0
20260905183029 98 47 0.9 4.3 0.00 0.00 0.00 53 1013.2
20260905181527 97 319 0.9 4.3 0.00 0.00 0.00 56 1013.2
20260905180025 96 305 0.9 3.5 0.00 0.00 0.00 55 1013.3
20260905174524 96 312 0.9 3.5 0.00 0.00 0.00 57 1013.2
20260905173022 96 328 1.7 4.3 0.00 0.00 0.00 57 1013.5
20260905171528 96 227 0.9 1.7 0.00 0.00 0.00 58 1013.6
20260905170022 95 218 0.9 2.6 0.00 0.00 0.00 60 1013.9
20260905164518 95 251 0.0 3.5 0.00 0.00 0.00 61 1014.1
20260905163021 95 230 0.0 1.7 0.00 0.00 0.00 61 1014.2
20260905161517 95 356 0.0 4.3 0.00 0.00 0.00 60 1014.3
20260905160015 95 219 0.0 3.5 0.00 0.00 0.00 61 1014.5
20260905154513 95 284 0.0 1.7 0.00 0.00 0.00 62 1014.3
20260905153014 95 241 0.0 1.7 0.00 0.00 0.00 63 1014.5
20260905151508 93 250 0.0 0.0 0.00 0.00 0.00 66 1014.4